Regional Weather Roundup
Issued by NWS Boston, MA

Home | Current Version | Previous Version | Text Only | Print | Product List | Glossary On
Versions: 1 2 3 4 5 6 7 8 9 10 11 12 13 14 15 16 17 18 19 20 21 22 23 24 25 26 27 28 29 30 31 32 33 34 35 36 37 38 39 40 41 42 43 44 45 46 47 48 49 50
000
ASUS41 KBOX 271410
RWRBOX

REGIONAL WEATHER ROUNDUP
NATIONAL WEATHER SERVICE TAUNTON MA
1000 AM EDT WED JUL 27 2016

NOTE:  "FAIR" INDICATES FEW OR NO CLOUDS BELOW 12,000 FEET WITH NO
SIGNIFICANT WEATHER AND/OR OBSTRUCTIONS TO VISIBILITY.  THE FOLLOWING
OBSERVATION LOCATIONS DO NOT REPORT PRESENT WEATHER...PROVINCETOWN...
SMITHFIELD...BLOCK ISLAND...KEENE...AND OXFORD.

MAZALL-271500-
EASTERN MASSACHUSETTS

CITY           SKY/WX    TMP DP  RH WIND       PRES   REMARKS
BOSTON         MOSUNNY   80  62  54 SE8       29.92F
BEVERLY        SUNNY     82  62  50 CALM      29.91F
LAWRENCE       SUNNY     82  61  48 VRB3      29.94F
BEDFORD        SUNNY     84  58  40 VRB6      29.91F
BLUE HILL        N/A     80  59  48 NW6       29.94F
NORWOOD        SUNNY     84  61  45 NW9       29.92F
MARSHFIELD     SUNNY     81  63  54 NE8       29.92S
PLYMOUTH       SUNNY     83  60  45 VRB5      29.93F
TAUNTON        SUNNY     83  61  47 VRB5      29.92S
NEW BEDFORD    SUNNY     83  61  47 VRB5      29.92F
$$

MAZALL-271500-
CAPE COD AND THE ISLANDS

CITY           SKY/WX    TMP DP  RH WIND       PRES   REMARKS
FALMOUTH       NOT AVBL
HYANNIS        SUNNY     80  62  54 N9        29.92S
CHATHAM        SUNNY     81  64  56 VRB3      29.93S
PROVINCETOWN   SUNNY     76  66  71 NW6       29.93S
NANTUCKET      SUNNY     80  64  58 N8        29.92S
MARTHAS VNYRD  MOSUNNY   81  64  56 NE3       29.93S
$$

MAZALL-271500-
CENTRAL AND WESTERN MASSACHUSETTS

CITY           SKY/WX    TMP DP  RH WIND       PRES   REMARKS
WORCESTER      SUNNY     79  58  48 CALM      29.97F
FITCHBURG      SUNNY     86  58  38 NW6       29.94F
ORANGE         SUNNY     80  61  52 VRB3      29.95F
SPRINGFIELD    SUNNY     80  62  52 SW2       29.93F
WESTFIELD      SUNNY     83  59  44 CALM      29.94F
NORTH ADAMS    SUNNY     76  61  59 VRB3      29.97F
PITTSFIELD     SUNNY     76  58  53 W8        29.98F
$$

RIZALL-271500-
RHODE ISLAND

CITY           SKY/WX    TMP DP  RH WIND       PRES   REMARKS
PROVIDENCE     MOSUNNY   84  60  44 N9        29.94S
NEWPORT        SUNNY     83  63  50 N6        29.94S
BLOCK ISLAND   SUNNY     80  62  54 CALM      29.95S
SMITHFIELD     SUNNY     81  61  50 N5        29.95S
WESTERLY       SUNNY     84  62  47 S6        29.95S
$$

CTZALL-271500-
CONNECTICUT

CITY           SKY/WX    TMP DP  RH WIND       PRES   REMARKS
BRADLEY INTL   MOSUNNY   83  60  45 W3        29.93F
HARTFORD       SUNNY     85  63  47 CALM      29.94F
BRIDGEPORT     SUNNY     80  63  55 SW6       29.95S
DANBURY        SUNNY     81  62  52 SW3       29.98S
GROTON         MOSUNNY   81  67  62 S7        29.93F
NEW HAVEN      SUNNY     81  63  54 W5        29.95S
CHESTER        FAIR      82  64  54 CALM      29.96S
MERIDEN        SUNNY     84  63  49 CALM      29.94F
WILLIMANTIC    NOT AVBL
OXFORD         MOSUNNY   81  61  50 NE5       30.00S
$$

MEZ002-015-021-024-NHZ003-005-008-011-012-014-VTZ005-008-271500-
NORTHERN NEW ENGLAND

CITY           SKY/WX    TMP DP  RH WIND       PRES   REMARKS
PORTLAND ME    MOSUNNY   82  62  50 N8        29.91S
BANGOR ME      MOSUNNY   84  65  52 N5        29.89F
CONCORD NH     SUNNY     82  62  50 CALM      29.93F
MANCHESTER NH  MOSUNNY   81  60  48 VRB5      29.91F
NASHUA NH      SUNNY     82  61  48 NE7       29.93F
PORTSMOUTH NH  MOSUNNY   80  62  53 W3        29.91S
JAFFREY NH     SUNNY     79  59  50 S7        29.97F
KEENE NH       SUNNY     77  62  59 NE5       29.96
BURLINGTON VT  FAIR      78  61  55 S12       29.94S
MT. WASHINGTON MOSUNNY   57  46  67 N3          N/A
$$

NYZ052-076-271500-
EASTERN NEW YORK

CITY           SKY/WX    TMP DP  RH WIND       PRES   REMARKS
ALBANY         SUNNY     79  60  52 W6        29.96F
NEW YORK CITY  MOSUNNY   82  60  47 E7        29.95S
$$

ANZALL-271500-
MARINE OBSERVATIONS

STATION/POSITION TIME  TEMP    WIND        PRES    VSBY  WAVE
                       AIR SEA DIR/SP/G                  HT/PER
                 (UTC) (F)     (DEG/KT/KT) (MB)    (MI)  (FT/S)
BOSTON BUOY      1350   72 72  250/  4/  6 1013.1S         1
BUZZARDS BAY     1300   73     280/  4/  5 1014.0R
NANTUCKET SOUND  1350   75 74  340/  6/  8 1012.9F         1/ 3
MASS BAY-STELLWA 1304   75 70  250/  2/  4 1013.2R  1 7/8  1
ISLE OF SHOALS   1400   74     310/  1/  1 1013.0S
S OF BLOCK IS    1325      72                N/A           3/ 7
$$

......................KEY.........................
  SKY/WX - SKY CONDITION/PRESENT WEATHER
  TMP    - TEMPERATURE IN FAHRENHEIT
  DWPT   - DEWPOINT IN FAHRENHEIT
  RH     - RELATIVE HUMIDITY IN PERCENT
  WIND   - DIRECTION AND SPEED IN MPH
  PRES   - MEAN SEA LEVEL PRESSURE IN INCHES OF HG
  WCI    - WIND CHILL INDEX
  VSB    - VISIBILITY IN MILES
  HX     - HEAT INDEX
  TC     - TEMPERATURE IN CELSIUS
  VRB    - VARIABLE WIND DIRECTION
  N/A    - NOT AVAILABLE



USA.gov is the U.S. government's official web portal to all federal, state and local government web resources and services.